PDT,Max TemperatureF,Mean TemperatureF,Min TemperatureF,Max Dew PointF,MeanDew PointF,Min DewpointF,Max Humidity, Mean Humidity, Min Humidity, Max Sea Level PressureIn, Mean Sea Level PressureIn, Min Sea Level PressureIn, Max VisibilityMiles, Mean VisibilityMiles, Min VisibilityMiles, Max Wind SpeedMPH, Mean Wind SpeedMPH, Max Gust SpeedMPH,PrecipitationIn, CloudCover, Events, WindDirDegrees
2013-4-1,71,56,41,43,40,35,76,56,35,29.99,29.95,29.90,10,10,10,12,4,,0.00,0,,281
2013-4-2,70,57,43,45,42,38,83,60,37,30.12,30.06,30.01,10,10,10,14,4,18,0.00,0,,342
2013-4-3,70,57,43,44,40,36,83,57,31,30.13,30.06,29.99,10,10,10,13,4,16,0.00,0,,352
2013-4-4,60,54,47,49,44,38,83,70,57,29.99,29.85,29.72,10,10,9,28,6,37,0.10,5,Rain,91
2013-4-5,65,55,45,49,44,39,100,70,40,29.93,29.88,29.85,10,10,10,20,5,26,0.17,7,Rain,295
2013-4-6,60,53,46,47,41,33,100,69,37,29.93,29.89,29.86,10,9,0,32,7,39,0.05,7,Fog-Rain,266
2013-4-7,60,52,43,44,37,29,92,64,35,29.84,29.70,29.62,10,10,8,33,10,40,0.22,6,Rain,183
2013-4-8,55,46,37,39,35,33,85,68,50,30.22,30.02,29.80,10,10,7,16,4,21,T,7,Rain,336
2013-4-9,59,46,32,35,32,28,96,66,36,30.37,30.29,30.24,10,10,10,8,2,12,0.00,1,,119
2013-4-10,65,55,44,48,38,34,70,55,39,30.24,30.04,29.88,10,10,4,30,9,38,0.04,6,Rain,298
2013-4-11,57,48,38,35,31,28,70,53,35,30.17,30.12,30.09,10,10,10,20,7,26,0.00,2,,247
2013-4-12,60,47,33,45,35,29,100,68,36,30.13,29.91,29.66,10,10,6,18,5,23,0.33,4,Rain,40
2013-4-13,53,47,40,45,32,23,100,68,35,29.91,29.75,29.63,10,10,2,33,16,44,T,6,Rain,242
2013-4-14,49,42,35,36,31,25,82,62,42,29.96,29.92,29.87,10,10,10,18,3,22,T,6,Rain,180
2013-4-15,52,42,31,32,28,21,96,66,36,30.06,29.95,29.88,10,10,10,16,3,22,T,7,,331
2013-4-16,51,40,28,23,19,16,69,48,27,30.33,30.21,30.07,10,10,10,16,3,,0.00,4,,58
2013-4-17,55,42,28,23,19,16,69,46,22,30.45,30.39,30.35,10,10,10,14,4,20,0.00,0,,222
2013-4-18,56,46,35,36,29,18,64,51,38,30.41,30.33,30.21,10,10,10,10,4,,T,8,Rain,59
2013-4-19,57,50,43,48,44,37,100,81,61,30.20,30.05,29.99,10,7,0,13,4,24,0.23,8,Fog-Rain,96
2013-4-20,62,54,46,42,37,34,71,54,36,30.14,30.10,30.04,10,10,10,22,9,31,0.00,7,,241
2013-4-21,61,51,41,41,37,34,82,59,36,30.22,30.11,30.01,10,10,10,32,7,43,0.01,7,,290
2013-4-22,56,46,35,38,27,19,82,56,29,30.46,30.39,30.24,10,10,10,12,3,16,0.00,1,,230
2013-4-23,61,46,30,31,25,18,78,50,21,30.40,30.31,30.22,10,10,10,10,3,,0.00,0,,134
2013-4-24,67,51,35,35,31,25,76,51,26,30.34,30.19,30.00,10,10,10,17,3,,0.00,0,,360
2013-4-25,73,55,37,39,34,31,79,51,22,30.07,30.00,29.97,10,10,10,14,4,31,0.00,0,,308
2013-4-26,78,61,44,42,38,35,70,48,25,30.21,30.14,30.08,10,10,10,14,3,25,0.00,0,,33
2013-4-27,74,62,50,45,38,30,66,44,22,30.14,30.08,30.01,10,10,10,32,8,40,T,3,Rain,308
2013-4-28,69,60,51,41,37,28,64,45,26,30.11,30.03,29.91,10,10,10,21,6,30,T,5,Rain,261
2013-4-29,60,51,41,44,30,14,77,48,19,30.02,29.88,29.79,10,10,9,37,14,47,0.01,4,Rain,277
2013-4-30,54,44,34,34,28,21,82,56,30,30.39,30.19,30.01,10,10,10,32,9,40,T,5,Rain,292